DIYO

Yamoussoukro International Airport

Airport
ICAO code
DIYO
IATA Code
ASK
Summary
ICAO Region
AFI
ICAO Territory
Location

Yamoussoukro, Yamoussoukro district

Serving
Yamoussoukro
Elevation
699 ft
Coordinates
6° 54' 17" N , 5° 21' 44" W
KCC
Metar
DIYO 271000Z 22008KT 9999 BKN013 29/24 Q1013 BECMG BKN015

Yamoussoukro International Airport is a regional airport serving Yamoussoukro in Côte d'Ivoire.

Climatology

Tropical Savannah climate (Köppen climate classification Aw)

Runways

Designator Length Width Surface Rops
5/23 3000 45 ASP No/No

Airport map

Aerial View

SKYbrary Partners:

Safety knowledge contributed by: